Change the Weather History Date:

Wednesday, April 17, 2013

  Actual Average Record
Temperature  
Mean Temperature 62 °F -  
Max Temperature 79 °F 73 °F 100 °F (2006)
Min Temperature 46 °F 48 °F 32 °F (1999)
Degree Days  
Heating Degree Days 3    
Growing Degree Days 12 (Base 50)    
Moisture  
Dew Point 60 °F    
Average Humidity 96    
Maximum Humidity 100    
Minimum Humidity 74    
Precipitation  
Precipitation 0.35 in - - ()
Sea Level Pressure  
Sea Level Pressure 29.68 in    
Wind  
Wind Speed 11 mph (NE)    
Max Wind Speed 26 mph    
Max Gust Speed 38 mph    
Visibility 5 miles    
Events Rain , Thunderstorm    
Averages and records for this station are not official NWS values.
T = Trace of Precipitation, MM = Missing Value Source: NWS Daily Summary

Daily Weather History Graph

Daily Weather History Graph

Search for Another Location

Airport or City:

Trip Planner

Search our weather history database for the weather conditions in past years. The results will help you decide how hot, cold, wet, or windy it might be!

Date:

Astronomy

Apr. 17, 2013 Rise Set
Actual Time 7:02 AM CDT 8:11 PM CDT
Civil Twilight 6:36 AM CDT 8:37 PM CDT
Nautical Twilight 6:05 AM CDT 9:08 PM CDT
Astronomical Twilight 5:33 AM CDT 9:40 PM CDT
Moon 12:22 PM CDT (4/17) 1:44 AM CDT (4/17)
Length of Visible Light 14h 00m
Length of Day
13h 08m
Waxing Crescent, 42% of the Moon is Illuminated
Apr 17
Waxing Crescent
Apr 18
First Quarter
Apr 25
Full
May 2
Last Quarter
May 9
New

Hourly Weather History & Observations

Time (CDT) Temp. Windchill Dew Point Humidity Pressure Visibility Wind Dir Wind Speed Gust Speed Precip Events Conditions
12:56 AM 50.0 °F - 50.0 °F 100% 29.82 in 3.0 mi NNE 9.2 mph - N/A   Scattered Clouds
1:55 AM 50.0 °F - 50.0 °F 100% 29.83 in 3.0 mi NNE 6.9 mph - N/A   Scattered Clouds
2:23 AM 50.0 °F - 50.0 °F 100% 29.82 in 4.0 mi NE 8.1 mph - N/A   Mostly Cloudy
2:30 AM 50.0 °F - 50.0 °F 100% 29.82 in 8.0 mi NE 6.9 mph - N/A   Scattered Clouds
2:35 AM 51.8 °F - 50.0 °F 94% 29.82 in 8.0 mi NE 5.8 mph - N/A   Partly Cloudy
2:40 AM 51.8 °F - 50.0 °F 94% 29.82 in 7.0 mi NE 6.9 mph - N/A   Partly Cloudy
3:13 AM 50.0 °F - 50.0 °F 100% 29.81 in 7.0 mi NE 6.9 mph - N/A   Partly Cloudy
3:24 AM 50.0 °F - 50.0 °F 100% 29.80 in 7.0 mi NE 8.1 mph - N/A   Clear
3:32 AM 50.0 °F - 50.0 °F 100% 29.80 in 7.0 mi NE 8.1 mph - N/A   Clear
3:42 AM 50.0 °F - 50.0 °F 100% 29.80 in 7.0 mi NE 8.1 mph - N/A   Partly Cloudy
3:58 AM 50.9 °F - 50.9 °F 100% 29.78 in 6.0 mi NE 6.9 mph - N/A   Partly Cloudy
4:03 AM 50.0 °F - 50.0 °F 100% 29.79 in 6.0 mi NE 5.8 mph - N/A   Partly Cloudy
4:28 AM 51.8 °F - 51.8 °F 100% 29.79 in 6.0 mi NE 5.8 mph - N/A   Partly Cloudy
4:38 AM 53.6 °F - 53.6 °F 100% 29.79 in 7.0 mi NE 4.6 mph - N/A   Mostly Cloudy
4:43 AM 53.6 °F - 53.6 °F 100% 29.79 in 7.0 mi NNE 4.6 mph - N/A   Mostly Cloudy
4:58 AM 56.1 °F - 56.1 °F 100% 29.77 in 7.0 mi East 6.9 mph - N/A   Overcast
5:13 AM 59.0 °F - 59.0 °F 100% 29.77 in 8.0 mi East 6.9 mph - N/A   Overcast
5:53 AM 60.8 °F - 60.8 °F 100% 29.77 in 7.0 mi ESE 8.1 mph - N/A   Mostly Cloudy
5:58 AM 61.2 °F - 61.2 °F 100% 29.75 in 7.0 mi ESE 6.9 mph - N/A   Mostly Cloudy
6:13 AM 62.6 °F - 62.6 °F 100% 29.76 in 7.0 mi ESE 9.2 mph - N/A   Scattered Clouds
6:27 AM 64.4 °F - 64.4 °F 100% 29.75 in 3.0 mi SE 9.2 mph - N/A   Mostly Cloudy
6:28 AM 64.4 °F - 64.4 °F 100% 29.76 in 7.0 mi SE 10.4 mph - N/A   Partly Cloudy
6:55 AM 62.6 °F - 62.6 °F 100% 29.75 in 3.0 mi ESE 6.9 mph - N/A   Mostly Cloudy
7:47 AM 64.4 °F - 64.4 °F 100% 29.77 in 2.5 mi East 4.6 mph - N/A   Mostly Cloudy
7:55 AM 64.4 °F - 64.4 °F 100% 29.76 in 2.0 mi Variable 3.5 mph - N/A   Mostly Cloudy
8:56 AM 62.6 °F - 62.6 °F 100% 29.78 in 6.0 mi NW 6.9 mph - N/A   Overcast
8:59 AM 62.2 °F - 62.2 °F 100% 29.77 in 2.0 mi NW 6.9 mph - 0.00 in   Mostly Cloudy
9:14 AM 60.8 °F - 60.8 °F 100% 29.78 in 2.0 mi NW 8.1 mph - N/A   Overcast
9:19 AM 60.8 °F - 60.8 °F 100% 29.77 in 2.0 mi North 5.8 mph - N/A   Overcast
9:29 AM 60.8 °F - 60.8 °F 100% 29.77 in 2.0 mi NNW 6.9 mph - N/A   Mostly Cloudy
9:39 AM 60.8 °F - 60.8 °F 100% 29.77 in 5.0 mi North 5.8 mph - N/A   Mostly Cloudy
9:44 AM 60.8 °F - 60.8 °F 100% 29.76 in 2.0 mi North 6.9 mph - N/A   Mostly Cloudy
9:54 AM 60.8 °F - 60.8 °F 100% 29.76 in 5.0 mi North 4.6 mph - N/A   Mostly Cloudy
9:58 AM 62.6 °F - 62.6 °F 100% 29.75 in 2.0 mi NNW 4.6 mph - N/A   Mostly Cloudy
10:13 AM 64.4 °F - 64.4 °F 100% 29.75 in 3.0 mi NE 3.5 mph - N/A   Mostly Cloudy
10:18 AM 64.4 °F - 64.4 °F 100% 29.75 in 3.0 mi ENE 4.6 mph - N/A   Mostly Cloudy
10:23 AM 64.4 °F - 64.4 °F 100% 29.75 in 3.0 mi East 4.6 mph - N/A   Mostly Cloudy
10:58 AM 67.8 °F - 67.6 °F 99% 29.73 in 3.0 mi ESE 4.6 mph - N/A   Mostly Cloudy
11:18 AM 69.8 °F - 69.8 °F 100% 29.73 in 2.0 mi SE 10.4 mph - N/A   Mostly Cloudy
11:23 AM 71.6 °F - 71.6 °F 100% 29.72 in 2.0 mi SE 15.0 mph - N/A   Mostly Cloudy
11:43 AM 73.4 °F - 69.8 °F 88% 29.72 in 3.0 mi SE 18.4 mph 23.0 mph N/A   Mostly Cloudy
11:59 AM 73.0 °F - 70.5 °F 92% 29.69 in 3.0 mi SE 18.4 mph 26.5 mph N/A   Mostly Cloudy
12:09 PM 73.4 °F - 69.8 °F 88% 29.70 in 8.0 mi SE 21.9 mph - N/A   Partly Cloudy
12:34 PM 75.2 °F - 69.8 °F 83% 29.69 in 4.0 mi SE 20.7 mph 33.4 mph N/A   Overcast
12:39 PM 75.2 °F - 69.8 °F 83% 29.67 in 4.0 mi SSE 11.5 mph 33.4 mph N/A   Mostly Cloudy
12:44 PM 75.2 °F - 69.8 °F 83% 29.69 in 4.0 mi South 13.8 mph 25.3 mph N/A   Mostly Cloudy
12:58 PM 75.0 °F - 68.9 °F 81% 29.67 in 4.0 mi SE 26.5 mph 29.9 mph N/A   Mostly Cloudy
1:08 PM 75.2 °F - 68.0 °F 78% 29.68 in 4.0 mi SSE 21.9 mph 34.5 mph N/A   Overcast
1:23 PM 77.0 °F - 68.0 °F 74% 29.67 in 4.0 mi SE 21.9 mph 27.6 mph N/A   Overcast
1:53 PM 78.8 °F - 69.8 °F 74% 29.63 in 5.0 mi SE 21.9 mph 32.2 mph N/A   Haze
1:58 PM 77.0 °F - 69.8 °F 78% 29.61 in 9.0 mi SE 24.2 mph 32.2 mph N/A   Mostly Cloudy
2:01 PM 77.0 °F - 68.0 °F 74% 29.63 in 9.0 mi SE 19.6 mph 29.9 mph N/A Thunderstorm Thunderstorm
2:06 PM 77.0 °F - 68.0 °F 74% 29.63 in 9.0 mi SE 23.0 mph 29.9 mph N/A Thunderstorm Thunderstorm
2:16 PM 77.0 °F - 68.0 °F 74% 29.64 in 9.0 mi West 10.4 mph 28.8 mph N/A   Overcast
2:56 PM 68.0 °F - 62.6 °F 83% 29.64 in 7.0 mi WNW 4.6 mph - N/A Rain Light Rain
2:59 PM 67.6 °F - 62.8 °F 84% 29.65 in 6.0 mi Variable 2.3 mph - N/A Rain Light Rain
3:31 PM 71.6 °F - 69.8 °F 94% 29.62 in 5.0 mi ENE 4.6 mph - N/A Thunderstorm Overcast
3:42 PM 73.4 °F - 69.8 °F 88% 29.63 in 5.0 mi NNW 8.1 mph - N/A Rain Light Rain
3:52 PM 73.4 °F - 69.8 °F 88% 29.61 in 5.0 mi NNE 10.4 mph - N/A   Mostly Cloudy
3:58 PM 73.2 °F - 69.4 °F 88% 29.59 in 5.0 mi NNE 10.4 mph - 0.00 in   Mostly Cloudy
4:18 PM 64.4 °F - 62.6 °F 94% 29.59 in 6.0 mi NE 17.3 mph - N/A   Mostly Cloudy
4:29 PM 64.4 °F - 62.6 °F 94% 29.58 in 2.0 mi NNE 18.4 mph - N/A Rain Light Rain
4:38 PM 64.4 °F - 62.6 °F 94% 29.57 in 4.0 mi NE 16.1 mph - N/A Rain Light Rain
4:55 PM 62.6 °F - 62.6 °F 100% 29.57 in 4.0 mi NE 19.6 mph - N/A Rain , Thunderstorm Light Thunderstorms and Rain
4:58 PM 62.4 °F - 62.4 °F 100% 29.55 in 4.0 mi NE 18.4 mph - 0.06 in Rain , Thunderstorm Thunderstorms and Rain
5:10 PM 60.8 °F - 60.8 °F 100% 29.56 in 1.8 mi NE 21.9 mph 25.3 mph N/A Rain , Thunderstorm Heavy Thunderstorms and Rain
5:22 PM 59.0 °F - 59.0 °F 100% 29.56 in 1.8 mi ENE 23.0 mph 27.6 mph N/A Rain , Thunderstorm Heavy Thunderstorms and Rain
5:44 PM 59.0 °F - 59.0 °F 100% 29.53 in 3.0 mi NNE 17.3 mph - N/A Rain , Thunderstorm Light Thunderstorms and Rain
5:50 PM 59.0 °F - 59.0 °F 100% 29.55 in 3.0 mi NNE 18.4 mph - N/A Rain , Thunderstorm Light Thunderstorms and Rain
5:56 PM 59.0 °F - 59.0 °F 100% 29.56 in 3.0 mi NNE 20.7 mph 27.6 mph N/A Rain , Thunderstorm Light Thunderstorms and Rain
5:59 PM 59.2 °F - 59.2 °F 100% 29.55 in 3.0 mi NNE 17.3 mph 27.6 mph 0.22 in Rain , Thunderstorm Light Thunderstorms and Rain
6:04 PM 59.0 °F - 59.0 °F 100% 29.55 in 3.0 mi North 16.1 mph - N/A Rain , Thunderstorm Light Thunderstorms and Rain
6:22 PM 57.2 °F - 57.2 °F 100% 29.53 in 4.0 mi North 18.4 mph 25.3 mph N/A Rain Light Rain
6:33 PM 57.2 °F - 57.2 °F 100% 29.54 in 4.0 mi NNE 18.4 mph 24.2 mph N/A Thunderstorm Overcast
6:45 PM 57.2 °F - 57.2 °F 100% 29.55 in 4.0 mi NNE 24.2 mph - N/A Rain Light Rain
6:57 PM 55.4 °F - 55.4 °F 100% 29.52 in 4.0 mi NNE 23.0 mph 29.9 mph N/A Rain , Thunderstorm Light Rain
6:58 PM 56.3 °F - 56.3 °F 100% 29.50 in 3.0 mi NE 24.2 mph 29.9 mph 0.02 in Rain , Thunderstorm Light Thunderstorms and Rain
7:04 PM 55.4 °F - 55.4 °F 100% 29.55 in 5.0 mi NE 21.9 mph 29.9 mph N/A Rain , Thunderstorm Light Rain
7:28 PM 55.4 °F - 55.4 °F 100% 29.55 in 4.0 mi NNE 15.0 mph 26.5 mph N/A Rain , Thunderstorm Light Rain
7:58 PM 54.9 °F - 54.9 °F 100% 29.50 in 4.0 mi NNE 17.3 mph - 0.05 in Rain Light Rain
8:58 PM 52.5 °F - 52.5 °F 100% 29.55 in 10.0 mi NNE 17.3 mph 24.2 mph N/A   Overcast
9:11 PM 51.8 °F - 51.8 °F 100% 29.58 in 10.0 mi NNW 15.0 mph - N/A   Overcast
9:26 PM 51.8 °F - 51.8 °F 100% 29.59 in 10.0 mi North 12.7 mph - N/A   Overcast
9:58 PM 51.8 °F - 51.8 °F 100% 29.59 in 10.0 mi NNW 13.8 mph - N/A   Overcast
10:58 PM 48.6 °F - 48.4 °F 99% 29.62 in 10.0 mi North 17.3 mph 29.9 mph N/A   Overcast
11:13 PM 48.2 °F - 48.2 °F 100% 29.64 in 10.0 mi North 20.7 mph 29.9 mph N/A   Overcast
11:48 PM 46.4 °F 38.1 °F 46.4 °F 100% 29.69 in 10.0 mi NNW 24.2 mph 38.0 mph N/A   Overcast
11:58 PM 46.9 °F - 46.4 °F 98% 29.68 in 10.0 mi NNW 25.3 mph 33.4 mph N/A   Overcast